User: anonymous   Login
Location: Bonaustraße
(48.4603°N, 11.9280°E)
Time: 15:38:26
(UTC+02:00)
Language:

STRAND 1 - Orbit

View from above orbital plane
View from above orbital plane
View from above satellite
View from above satellite

Ground track
Ground track

The orbit data is extracted from the following two-line orbital elements,

1 39090U 13009E   21214.49017711 -.00000004  00000-0  13655-4 0  9993
2 39090  98.4254  55.5986 0009950 135.8491 224.3491 14.35174394441642
Epoch (UTC): 02 August 2021 11:45:51
Eccentricity: 0.0009950
inclination: 98.4254°
perigee height: 767 km
apogee height: 781 km
right ascension of ascending node: 55.5986°
argument of perigee: 135.8491°
revolutions per day: 14.35174394
mean anomaly at epoch: 224.3491°
orbit number at epoch: 44164

The dashed part of the orbit path shows where the satellite is in the earth's shadow,  

DLR